Overview Statistics Trail Chart Weather Telemetry Raw packets
 

This is the latest recevied weather packets stored in our database for station/object KD8DNS. If no packets are shown the sender has not sent any weather packets the latest 10 day(s).

<< 41 42 43 44 45 46 47 >>
Time Temp. Humidity Pressure Rain* Wind** Luminosity Snow
1788392484 31.11° C 67% 1018.9 hPa 0 mm - 10 W/m² -
1788392179 31.11° C 65% 1018.7 hPa 0 mm - 13 W/m² -
1788391874 31.67° C 65% 1018.8 hPa 0 mm - 15 W/m² -
1788391568 32.22° C 63% 1018.9 hPa 0 mm - 18 W/m² -
1788391262 32.22° C 62% 1018.9 hPa 0 mm - 21 W/m² -
1788390961 32.78° C 61% 1019 hPa 0 mm - 24 W/m² -
1788390656 32.78° C 60% 1018.9 hPa 0 mm - 26 W/m² -
1788390351 32.78° C 59% 1019 hPa 0 mm - 28 W/m² -
1788390050 33.33° C 58% 1019.1 hPa 0 mm - 31 W/m² -
1788389746 33.33° C 58% 1019 hPa 0 mm - 44 W/m² -
1788389444 33.89° C 56% 1018.8 hPa 0 mm - 37 W/m² -
1788389143 33.89° C 55% 1018.8 hPa 0 mm - 36 W/m² -
1788388839 33.89° C 55% 1019 hPa 0 mm - 36 W/m² -
1788388536 33.89° C 55% 1019 hPa 0 mm - 38 W/m² -
1788388234 34.44° C 54% 1019 hPa 0 mm - 40 W/m² -
1788387933 34.44° C 54% 1019 hPa 0 mm - 41 W/m² -
1788387632 34.44° C 54% 1019 hPa 0 mm - 43 W/m² -
1788387327 33.89° C 54% 1019 hPa 0 mm - 44 W/m² -
1788387023 34.44° C 53% 1019.1 hPa 0 mm - 46 W/m² -
1788386718 34.44° C 52% 1019.2 hPa 0 mm - 48 W/m² -
1788386412 34.44° C 54% 1019.1 hPa 0 mm - 85 W/m² -
1788386108 34.44° C 52% 1018.9 hPa 0 mm - 49 W/m² -
1788385804 34.44° C 52% 1018.9 hPa 0 mm - 49 W/m² -
1788385503 35° C 52% 1019 hPa 0 mm - 52 W/m² -
1788385202 35° C 51% 1019.3 hPa 0 mm - 55 W/m² -

* Rain latest hour (hover to see other rain measurements)
** Current wind speed in m/s (hover to see current wind gust speed)